This is the latest recevied weather packets stored in our database for station/object W1QED. If no packets are shown the sender has not sent any weather packets the latest 1 day(s).
| Time | Temp. | Humidity | Pressure | Rain* | Wind** | Luminosity | Snow |
|---|---|---|---|---|---|---|---|
| 1778040601 | 18.33° C | 48% | 1008.9 hPa | 0 mm | 2.68 m/s, 200° | - | - |
| 1778040301 | 18.33° C | 48% | 1009 hPa | 0 mm | 3.13 m/s, 201° | - | - |
| 1778040070 | 18.33° C | 48% | 1009 hPa | 0 mm | 3.58 m/s, 212° | - | - |
| 1778039760 | 17.78° C | 48% | 1008.9 hPa | 0 mm | 2.68 m/s, 233° | - | - |
| 1778039458 | 17.78° C | 48% | 1009 hPa | 0 mm | 3.58 m/s, 212° | - | - |
| 1778039157 | 17.78° C | 49% | 1009.1 hPa | 0 mm | 3.13 m/s, 235° | - | - |
| 1778038855 | 17.78° C | 49% | 1009.1 hPa | 0 mm | 2.68 m/s, 187° | - | - |
| 1778038555 | 17.78° C | 49% | 1009.1 hPa | 0 mm | 1.79 m/s, 242° | - | - |
| 1778038256 | 17.78° C | 49% | 1009.1 hPa | 0 mm | 0.89 m/s, 214° | - | - |
| 1778037954 | 17.78° C | 48% | 1009.1 hPa | 0 mm | 0.89 m/s, 207° | - | - |
| 1778037654 | 17.78° C | 48% | 1009.1 hPa | 0 mm | 0.45 m/s, 205° | - | - |
| 1778037413 | 17.78° C | 48% | 1009 hPa | 0 mm | 1.34 m/s, 231° | - | - |
| 1778037053 | 17.78° C | 47% | 1009.1 hPa | 0 mm | 1.34 m/s, 203° | - | - |
| 1778036752 | 17.78° C | 47% | 1009.1 hPa | 0 mm | 0.89 m/s, 211° | - | - |
| 1778036461 | 18.33° C | 47% | 1009 hPa | 0 mm | 0.45 m/s, 210° | - | - |
| 1778036151 | 18.33° C | 47% | 1009.1 hPa | 0 mm | 0.45 m/s, 217° | - | - |
| 1778035850 | 18.33° C | 47% | 1009 hPa | 0 mm | 0.45 m/s, 212° | - | - |
| 1778035555 | 18.33° C | 47% | 1009 hPa | 0 mm | 1.79 m/s, 229° | - | - |
| 1778035248 | 18.33° C | 47% | 1009.1 hPa | 0 mm | 0.89 m/s, 221° | - | - |
| 1778034948 | 18.33° C | 47% | 1009 hPa | 0 mm | 0.89 m/s, 193° | - | - |
| 1778034647 | 18.33° C | 46% | 1009 hPa | 0 mm | 0.45 m/s, 220° | - | - |
| 1778034347 | 18.89° C | 46% | 1009 hPa | 0 mm | 0.89 m/s, 202° | - | - |
| 1778034047 | 18.89° C | 45% | 1009 hPa | 0 mm | 1.34 m/s, 221° | - | - |
| 1778033746 | 18.89° C | 45% | 1009.1 hPa | 0 mm | 0.89 m/s, 219° | - | - |
| 1778033506 | 18.89° C | 46% | 1009 hPa | 0 mm | 1.79 m/s, 200° | - | - |
* Rain latest hour (hover to see other rain measurements)
** Current wind speed in m/s (hover to see current wind gust speed)